AO-07 1 07530U 74089B 18186.54015135 -.00000025 00000-0 12138-3 0 9997 2 07530 101.6880 153.5861 0011760 301.5562 170.9784 12.53633293996666 UO-11 1 14781U 84021B 18186.62256969 .00000031 00000-0 10025-4 0 9991 2 14781 097.6476 222.0512 0009182 031.8581 328.3187 14.83015299826170 LO-19 1 20442U 90005G 18186.36799262 -.00000015 00000-0 10781-4 0 9992 2 20442 098.6106 124.7485 0012954 095.9005 264.3656 14.32899236486438 HUBBLE 1 20580U 90037B 18186.49289611 .00000342 00000-0 99287-5 0 9997 2 20580 028.4704 354.0953 0002647 341.0465 054.8052 15.09061042348156 MET-2/21 1 22782U 93055A 18186.24967296 -.00000002 00000-0 -15688-4 0 9998 2 22782 082.5493 079.6008 0023570 076.7451 038.0258 13.83812476254405 AO-27 1 22825U 93061C 18186.48232541 -.00000012 00000-0 13412-4 0 9990 2 22825 098.8636 162.9304 0007410 297.4856 062.5571 14.30033826291917 IO-26 1 22826U 93061D 18186.84466800 -.00000002 00000-0 17068-4 0 9998 2 22826 98.8576 163.3346 0007828 284.1805 75.8506 14.30365573292421 FO-29 1 24278U 96046B 18186.56858442 -.00000015 00000-0 18125-4 0 9992 2 24278 098.5168 022.7901 0351334 063.3188 300.3473 13.53084464080478 NOAA-15 1 25338U 98030A 18186.57671122 .00000049 00000-0 39477-4 0 9993 2 25338 098.7683 203.0208 0010744 167.7731 192.3711 14.25863298047381 GO-32 1 25397U 98043D 18186.37511434 -.00000018 00000-0 11153-4 0 9997 2 25397 098.6504 126.5134 0001245 023.0335 337.0899 14.23647902038097 ISS 1 25544U 98067A 18186.60725947 .00001345 00000-0 27662-4 0 9994 2 25544 051.6418 286.8927 0003421 271.7611 178.1814 15.54011004121380 NO-44 1 26931U 01043C 18186.46313197 -.00000043 00000-0 15475-4 0 9991 2 26931 067.0495 182.2514 0007992 271.9556 088.0630 14.30509837875093 SO-50 1 27607U 02058C 18186.03799612 -.00000059 00000-0 12464-4 0 9994 2 27607 64.5555 35.4706 0067102 324.5184 35.1464 14.75462108835593 CO-55 1 27844U 03031E 18186.60298313 .00000030 00000-0 33187-4 0 9997 2 27844 098.6859 194.9872 0009019 324.8478 035.2103 14.22121090778779 CO-57 1 27848U 03031J 18186.56744758 .00000019 00000-0 28419-4 0 9994 2 27848 098.6946 195.3563 0009124 336.0825 023.9928 14.21724353778645 RS-22 1 27939U 03042A 18186.87849501 .00000086 00000-0 23877-4 0 9990 2 27939 97.9932 325.5322 0014391 89.9549 23.7342 14.66698294789555 NOAA-18 1 28654U 05018A 18186.59602367 -.00000006 00000-0 21845-4 0 9992 2 28654 099.1433 222.4224 0015426 077.4485 282.8410 14.12379711676287 CO-58 1 28895U 05043F 18186.39374735 .00000074 00000-0 22950-4 0 9992 2 28895 097.9116 337.1138 0017140 016.8781 343.2989 14.63559234676545 Falconsat-3 1 30776U 07006E 18186.35663339 .00001181 00000-0 35997-4 0 9996 2 30776 035.4346 151.0719 0003448 210.8771 149.1753 15.34606346627114 CO-65 1 32785U 08021C 18186.47146340 .00000133 00000-0 20074-4 0 9993 2 32785 097.5464 197.7764 0012588 344.9608 015.1234 14.88140351551823 AAUSAT2 1 32788U 08021F 18186.56901494 .00000278 00000-0 30885-4 0 9996 2 32788 097.5205 212.3084 0010259 290.1310 069.8807 14.94381134552829 DO-64 1 32789U 08021G 18186.58170939 .00000716 00000-0 53078-4 0 9997 2 32789 097.5102 240.9248 0011205 229.9821 130.0424 15.06130065554450 CO-66 1 32791U 08021J 18186.46314555 .00000291 00000-0 35138-4 0 9996 2 32791 097.5352 203.1685 0012383 323.5707 036.4668 14.90578999552156 RS-30 1 32953U 08025A 18186.87265225 .00000028 00000-0 13306-3 0 9994 2 32953 82.5028 1.0558 0019384 166.6788 193.4807 12.43083886459097 PRISM 1 33493U 09002B 18186.75936309 .00001009 00000-0 94888-4 0 9990 2 33493 98.1291 89.5629 0013939 255.1260 104.8388 14.96260799513126 NOAA-19 1 33591U 09005A 18186.56017625 .00000068 00000-0 62294-4 0 9992 2 33591 099.1427 164.9524 0012914 276.2020 083.7679 14.12290506484503 TISAT-1 1 36799U 10035E 18186.43943901 .00000184 00000-0 24805-4 0 9996 2 36799 098.1091 323.1411 0013253 143.7130 216.4989 14.90825511432679 JUGNU 1 37839U 11058B 18186.42776240 .00000301 00000-0 18905-4 0 9992 2 37839 019.9615 286.6470 0019116 087.6654 340.4476 14.12622692347849 SRMSAT 1 37841U 11058D 18186.46642765 .00000290 00000-0 14316-4 0 9992 2 37841 019.9733 335.9905 0011878 331.8491 064.4210 14.10609233347375 AO-71 1 37854U 11061E 18186.42354910 .00000608 00000-0 39723-4 0 9990 2 37854 101.7019 260.7269 0163375 019.4667 341.2687 15.05528013364125 HRBE 1 37855U 11061F 18186.49609717 .00000433 00000-0 30273-4 0 9993 2 37855 101.7149 258.3932 0176321 028.1075 332.9519 15.04513528363938 ALMASAT-1 1 38078U 12006B 18186.43749788 .00015895 37724-5 14355-3 0 9996 2 38078 69.4333 166.2094 0234282 78.4467 44.1712 15.41642410343468 HORYU-2 1 38340U 12025D 18186.58679259 .00000105 00000-0 23493-4 0 9994 2 38340 098.3649 208.9382 0012308 146.9309 213.2671 14.75570596319416 RS-40 1 38735U 12041C 18186.79399409 .00000012 00000-0 14940-4 0 9993 2 38735 82.4768 85.0203 0015851 275.4149 84.5122 12.42576688269337 BEESAT-3 1 39134U 13015E 18186.43449203 .00000620 00000-0 38771-4 0 9991 2 39134 064.8645 067.8816 0010525 216.0696 143.9722 15.19229220287293 BEESAT-2 1 39136U 13015G 18186.19874270 .00000433 00000-0 32400-4 0 9997 2 39136 64.8705 85.0699 0021208 234.3018 125.6134 15.16194237287328 ZACUBE-1 1 39417U 13066B 18186.62513888 .00000083 00000-0 16849-4 0 9998 2 39417 97.5857 214.2785 0060747 94.7550 266.0604 14.80949235249521 TRITON-1 1 39427U 13066M 18186.57165471 .00000143 00000-0 30963-4 0 9994 2 39427 097.6419 181.2823 0113454 199.7388 159.9410 14.67682246247087 GOMX-1 1 39430U 13066Q 18186.88776035 .00000135 00000-0 34000-4 0 9993 2 39430 97.6986 162.4162 0149969 271.5985 86.8043 14.59094132245876 LO-74 1 39440U 13066AA 18186.58419947 .00000118 00000-0 23406-4 0 9996 2 39440 097.6004 200.7276 0081638 135.0177 225.7685 14.75686954247432 AO-73 1 39444U 13066AE 18186.61135427 .00000155 00000-0 25388-4 0 9994 2 39444 097.5865 215.8140 0059861 090.2355 270.5718 14.81733073247796 SPROUT 1 39770U 14029E 18186.76373905 .00000442 00000-0 55561-4 0 9992 2 39770 97.8766 287.6551 0009801 141.1015 219.0890 14.86883960223128 DUCHIFAT-1 1 40021U 14033M 18186.32082655 .00000329 00000-0 39665-4 0 9990 2 40021 97.9156 105.0728 0014277 115.4344 244.8353 14.90330287219651 NANOSATCBR1 1 40024U 14033Q 18186.70675751 .00000223 00000-0 29297-4 0 9993 2 40024 97.9090 103.6659 0013555 116.2572 244.0039 14.89590603219637 EO-79 1 40025U 14033R 18186.36210936 .00000159 00000-0 23025-4 0 9997 2 40025 97.9048 101.7236 0013704 121.4804 238.7754 14.88732092219490 DTUSAT-2 1 40030U 14033W 18186.73527442 .00000122 00000-0 19172-4 0 9995 2 40030 97.8992 100.7678 0013254 115.8112 244.4474 14.88338960219490 EO-80 1 40032U 14033Y 18186.59228623 .00000139 00000-0 21040-4 0 9995 2 40032 097.9000 100.6279 0013167 116.7750 243.4815 14.88276325218943 ANTELSAT 1 40034U 14033AA 18186.60173055 .00000118 00000-0 25016-4 0 9991 2 40034 097.8089 062.5635 0059757 137.6266 222.9581 14.73937684216869 VELOX-1 1 40057U 14034E 18186.79793474 .00000201 00000-0 35819-4 0 9995 2 40057 98.2056 298.1692 0009527 267.4406 92.5714 14.77444958216399 DAURIA DX 1 1 40071U 14037C 18186.79415874 .00000058 00000-0 14927-4 0 9996 2 40071 98.3783 318.9878 0007267 261.0715 98.9682 14.81169129215754 UKUBE-1 1 40074U 14037F 18186.83097607 .00000155 00000-0 25888-4 0 9990 2 40074 98.3906 325.0337 0003474 254.2694 105.8133 14.83818345216066 HODOYOSHI-1 1 40299U 14070B 18186.79308118 .00000382 00000-0 19250-4 0 9991 2 40299 97.3766 268.2373 0012884 178.5150 296.9472 15.22932848203317 CHUBUSAT-1 1 40300U 14070C 18186.77826209 .00000344 00000-0 18252-4 0 9997 2 40300 97.3602 264.0727 0019557 194.6459 317.1995 15.21606357203106 QSAT-EOS 1 40301U 14070D 18186.50474321 .00000983 00000-0 42172-4 0 9990 2 40301 097.3579 265.1763 0026300 184.4445 301.6964 15.24821011203213 FIREBIRD FU3 1 40377U 15003B 18186.52008759 .00000806 00000-0 37067-4 0 9991 2 40377 099.0853 091.9029 0131201 169.2459 191.1624 15.17289604189095 FIREBIRD FU4 1 40378U 15003C 18186.70667340 .00000784 00000-0 36138-4 0 9992 2 40378 99.0855 92.1850 0131425 168.5174 191.9104 15.17299089189131 GRIFEX 1 40379U 15003D 18186.71079509 .00000518 00000-0 27187-4 0 9997 2 40379 99.0881 88.2420 0138178 181.4421 178.6427 15.14389819188903 NO-84 1 40654U 15025D 18186.34106112 .00008699 00000-0 13946-3 0 03479 2 40654 054.9927 314.2857 0159049 154.6868 206.2072 15.41019421058643 NO-83 1 40655U 15025E 18186.41933224 .00013581 00000-0 14157-3 0 04023 2 40655 054.9742 254.8818 0104553 189.0215 170.8811 15.58343347059129 DEORBITSAIL 1 40719U 15032E 18186.61811954 .00000246 00000-0 42620-4 0 9991 2 40719 097.9432 079.8334 0016491 354.1844 005.9172 14.76458535160897 NUDT-PHONESAT 1 40900U 15049B 18186.58989972 .00001166 00000-0 54991-4 0 9999 2 40900 097.4405 194.6293 0012496 332.2181 027.8386 15.21407814154715 XW-2A 1 40903U 15049E 18186.81868923 .00001078 00000-0 28561-4 0 9996 2 40903 97.3826 221.8584 0013097 329.5658 30.4827 15.40579449156678 XW-2C 1 40906U 15049H 18186.80929339 .00000331 00000-0 21097-4 0 9995 2 40906 97.4596 189.9592 0014156 331.4630 28.5826 15.15224089154313 XW-2D 1 40907U 15049J 18186.82590887 .00000420 00000-0 25715-4 0 9990 2 40907 97.4570 189.6703 0013456 329.3446 30.6999 15.15378044154327 LILACSAT-2 1 40908U 15049K 18186.59071736 .00000158 00000-0 12451-4 0 9993 2 40908 097.4682 188.7743 0015187 331.4823 028.5576 15.13531559154150 XW-2F 1 40910U 15049M 18186.82573062 .00000650 00000-0 36678-4 0 9995 2 40910 97.4570 191.0190 0014023 324.3074 35.7220 15.16586713154273 XW-2B 1 40911U 15049N 18186.84410914 .00000428 00000-0 26164-4 0 9996 2 40911 97.4605 190.2329 0013369 329.9019 30.1444 15.15321329154221 DCBB 1 40912U 15049P 18186.48120447 .00000833 00000-0 43220-4 0 9998 2 40912 097.4499 193.5499 0014086 312.5042 201.7580 15.18810862154447 TW-1C 1 40926U 15051B 18186.68941564 .00004612 00000-0 85813-4 0 9992 2 40926 97.1814 228.9478 0009047 198.0101 310.6583 15.49336920156171 TW-1A 1 40928U 15051D 18186.86878549 .00001261 00000-0 34914-4 0 9999 2 40928 97.1833 220.4875 0009973 252.5957 194.3170 15.38804973155652 IO-86 1 40931U 15052B 18185.95765032 .00000699 00000-0 82709-5 0 9995 2 40931 005.9998 023.3771 0013183 260.7862 099.0864 14.76578893149636 LQSat 1 40958U 15057A 18186.57394098 .00000012 00000-0 96845-5 0 9993 2 40958 097.9390 259.3091 0016818 279.0595 080.8718 14.73036932147568 AO-85 1 40967U 15058D 18186.36152329 .00000053 00000-0 23928-4 0 03776 2 40967 064.7773 136.0953 0208673 308.0566 050.1824 14.75737503056332 ATHENOXAT-1 1 41168U 15077C 18186.49362669 .00001232 00000-0 30379-4 0 9993 2 41168 14.9897 246.3239 0011265 294.6291 183.5652 15.12826592141150 ChubuSat-2 1 41338U 16012B 18186.41397850 .00000213 00000-0 98472-5 0 9991 2 41338 031.0019 197.8448 0013863 253.8208 106.0902 14.99993293130577 ChubuSat-3 1 41339U 16012C 18186.42546025 .00000215 00000-0 99872-5 0 9990 2 41339 31.0101 196.3422 0013688 262.2672 97.6402 15.00180140130561 Horyu-4 1 41340U 16012D 18186.34148926 .00000274 00000-0 14171-4 0 9994 2 41340 031.0038 191.4273 0014067 273.1939 086.7087 15.01004946130626 OUFTI-1 1 41458U 16025C 18186.65895910 .00001881 00000-0 10071-3 0 9993 2 41458 98.1346 250.4943 0170733 85.9657 276.1068 15.04744661120217 e-st@r-II 1 41459U 16025D 18186.40313523 .00000816 00000-0 46424-4 0 9991 2 41459 098.1342 250.0572 0171878 087.4022 274.6871 15.04460825120168 AAUSAT4 1 41460U 16025E 18186.76286020 .00001356 00000-0 73224-4 0 9991 2 41460 98.1283 250.9667 0163373 82.0780 279.8915 15.05935076120286 LO-87 1 41557U 16033B 18186.77034419 .00000808 00000-0 32181-4 0 9999 2 41557 97.4376 270.9513 0016196 97.3736 262.9345 15.28057205116997 NuSat2 1 41558U 16033C 18186.76900839 .00000809 00000-0 32061-4 0 9995 2 41558 97.4391 271.0674 0014920 91.1846 269.1103 15.28246413116983 Lapan A3 1 41603U 16040E 18186.78251890 .00000047 00000-0 54084-5 0 9996 2 41603 97.4095 247.9672 0013701 168.6192 313.7538 15.19577073112900 Swayam 1 41607U 16040J 18186.39569440 .00000927 00000-0 43199-4 0 9991 2 41607 097.4120 249.1294 0014141 167.8496 192.3084 15.22290299112873 Pratham 1 41783U 16059A 18186.12567981 .00000018 00000-0 12882-4 0 9991 2 41783 98.1161 247.3946 0034443 41.2801 319.0995 14.62930341 94585 AlSat 1N 1 41789U 16059G 18186.75131709 .00000062 00000-0 20921-4 0 9993 2 41789 98.1175 249.2699 0029101 31.4852 328.8074 14.64164028 94730 ScatSat 1 41790U 16059H 18186.72658182 -.00000014 00000-0 76479-5 0 9999 2 41790 98.2580 234.1792 0019107 38.0861 322.1681 14.50860826 93877 TY-1 1 41844U 16066D 18186.67141049 .00000807 00000-0 36906-4 0 9999 2 41844 97.4045 193.3894 0015042 338.5926 155.6698 15.23312937 91698 Pegasus-1 1 41846U 16066F 18186.56603925 .00000177 00000-0 37630-4 0 9990 2 41846 098.7526 215.4022 0368010 192.2237 166.9836 14.37355123086548 CAS-2T 1 41847U 16066G 18186.62166265 .00000062 00000-0 20088-4 0 9991 2 41847 098.7486 215.9104 0366074 189.5474 169.8624 14.37903354086979 TO-89 1 41932U 98067KU 18186.61778220 .00020417 00000-0 12370-3 0 9996 2 41932 51.6305 245.7676 0003940 308.0200 52.0444 15.77541589 83672 AOBA-V3LOX3 1 41935U 98067KX 18186.39348811 .00033112 00000-0 16054-3 0 9992 2 41935 051.6340 241.9586 0004165 321.3079 038.7625 15.82152633083805 EO-88 1 42017U 17008BX 18186.40942702 .00000885 00000-0 38913-4 0 9991 2 42017 097.4469 251.3581 0005298 329.3774 030.7153 15.24501963076849 HAVELSAT 1 42700U 98067LH 18186.65036722 .00016269 00000-0 12515-3 0 9999 2 42700 51.6340 260.2814 0004833 329.5780 30.4937 15.72178804 64929 SOMP2 1 42701U 98067LJ 18186.65040268 .00014537 00000-0 11742-3 0 9997 2 42701 51.6347 261.7887 0004685 326.9915 33.0789 15.71116983 64898 PHOENIX 1 42706U 98067LP 18186.63471884 .00012137 00000-0 10397-3 0 9991 2 42706 51.6348 262.4441 0001353 304.1270 55.9598 15.69890800 64805 X-CubeSat 1 42707U 98067LQ 18186.68783299 .00019301 00000-0 14369-3 0 9996 2 42707 51.6306 259.7074 0001990 316.9726 43.1117 15.72818047 64831 qbee 1 42708U 98067LR 18186.64536791 .00016404 00000-0 12772-3 0 9993 2 42708 51.6355 260.9958 0001864 318.3445 41.7411 15.71889680 64779 ZA-AeroSat 1 42713U 98067LU 18186.67914107 .00011440 00000-0 10380-3 0 9991 2 42713 51.6342 264.9799 0001800 268.8633 91.2158 15.68546177 64434 LINK 1 42714U 98067LV 18186.64899622 .00049929 00000-0 23144-3 0 9998 2 42714 51.6231 251.7902 0003870 335.3376 24.7441 15.82920617 64713 UPSat 1 42716U 98067LX 18186.43434453 .00030257 00000-0 18151-3 0 9990 2 42716 051.6309 256.5154 0004523 334.2543 025.8232 15.77502814064655 SpaceCube 1 42717U 98067LY 18186.67272947 .00016783 00000-0 13118-3 0 9991 2 42717 51.6325 261.1499 0003651 331.3146 28.7651 15.71772932 63858 Hoopoe 1 42718U 98067LZ 18186.67209305 .00022877 00000-0 15595-3 0 9992 2 42718 51.6324 258.1455 0004206 332.6714 27.4063 15.74753231 63899 Challenger 1 42721U 98067MA 18186.64365963 .00114220 16085-4 33432-3 0 9994 2 42721 51.6252 245.6960 0008954 347.5946 12.4839 15.92552992 63752 NJUST-1 1 42722U 98067MB 18186.68757745 .00010812 00000-0 10241-3 0 9993 2 42722 51.6351 266.5613 0005473 308.6748 51.3759 15.67542544 63488 UNSW-EC0 1 42723U 98067MC 18186.66342424 .00025931 00000-0 16958-3 0 9995 2 42723 51.6368 258.1272 0005641 321.0281 39.0311 15.75621415 63574 DUTHsat 1 42724U 98067MD 18186.64121602 .00078702 00000-0 27002-3 0 9993 2 42724 51.6295 248.0297 0007780 345.4314 14.6466 15.88918498 63622 LO-90 1 42725U 98067ME 18186.69901917 .00014423 00000-0 12096-3 0 9991 2 42725 51.6351 263.6255 0004777 313.7504 46.3098 15.70213746 63421 nSIGHT1 1 42726U 98067MF 18186.67918638 .00004418 00000-0 56009-4 0 9994 2 42726 51.6387 274.0779 0004991 306.9748 53.0789 15.61786372 63297 SNUSAT 1B 1 42727U 98067MG 18186.64746345 .00014759 00000-0 12381-3 0 9999 2 42727 51.6332 263.9745 0005636 278.8790 81.1570 15.70180185 63389 QBITO 1 42728U 98067MH 18186.69418498 .00018803 00000-0 14435-3 0 9996 2 42728 51.6370 261.3919 0003285 323.0370 37.0401 15.72107930 63261 Aalto-2 1 42729U 98067MJ 18186.67004915 .00018738 00000-0 14213-3 0 9991 2 42729 51.6343 261.1642 0003271 324.5501 35.5280 15.72396141 63273 SUSat 1 42730U 98067MK 18186.68053617 .00015045 00000-0 12323-3 0 9995 2 42730 51.6345 262.7345 0003175 321.1892 38.8877 15.70749151 63249 i-INSPIRE II 1 42731U 98067ML 18186.64940825 .00024876 00000-0 15872-3 0 9992 2 42731 51.6354 257.1999 0004497 285.1975 74.8528 15.76220526 63364 PolyITAN-2-SAU 1 42732U 98067MM 18186.63221943 .00020173 00000-0 15125-3 0 9992 2 42732 51.6338 260.8786 0004755 272.5036 87.5418 15.72607892 63312 ExAlta-1 1 42734U 98067MP 18186.62320928 .00030438 00000-0 18605-3 0 9997 2 42734 51.6273 256.9805 0006472 306.3094 53.7308 15.77061648 63319 Aoxiang-1 1 42735U 98067MQ 18186.71272463 .00011323 00000-0 10557-3 0 9998 2 42735 51.6344 265.9536 0005873 305.8138 54.2312 15.67876376 64624 BeEagleSat 1 42736U 98067MR 18186.49674892 .00013512 00000-0 11726-3 0 9997 2 42736 051.6343 265.2476 0005734 307.2480 052.7994 15.69442133063307 CAS-4B 1 42759U 17034B 18186.80135154 -.00000081 00000-0 85670-5 0 9994 2 42759 43.0202 341.0791 0009840 230.3232 231.9901 15.09316011 58264 CAS-4A 1 42761U 17034D 18186.85215236 -.00000015 00000-0 12630-4 0 9994 2 42761 43.0202 340.5542 0009992 231.4255 251.8249 15.09392723 58260 UCLSat 1 42765U 17036A 18186.35616514 .00000684 00000-0 33046-4 0 9994 2 42765 097.3995 245.9114 0012292 021.3222 338.8524 15.21898730058068 NIUSat 1 42766U 17036B 18186.75892256 .00000542 00000-0 27915-4 0 9999 2 42766 97.3996 245.5431 0016012 5.6678 354.4736 15.20433341 57354 LituanicaSAT 2 1 42768U 17036D 18186.61628418 .00001140 00000-0 53712-4 0 9992 2 42768 097.4012 245.7588 0015771 008.5991 351.5512 15.21448393057367 Aalto 1 1 42775U 17036L 18186.19340274 .00000453 00000-0 23635-4 0 9991 2 42775 097.3987 245.2085 0014330 008.7132 351.4350 15.20781711057239 URSA MAIOR 1 42776U 17036M 18186.70539012 .00000477 00000-0 24687-4 0 9993 2 42776 97.3995 245.7661 0014119 7.2653 352.8785 15.20863407 57310 Max Valier Sat 1 42778U 17036P 18186.20273802 .00000580 00000-0 28918-4 0 9998 2 42778 097.4019 245.6159 0012905 014.9164 345.2449 15.21350290057241 Pegasus 1 42784U 17036V 18186.39588525 .00000659 00000-0 32123-4 0 9996 2 42784 097.3997 245.8720 0012806 020.7983 339.3772 15.21706705057285 NUDATSat 1 42787U 17036Y 18186.70158503 .00000957 00000-0 44539-4 0 9998 2 42787 97.4005 246.3920 0012281 19.7872 340.3839 15.22301260 57182 SUCHAI 1 1 42788U 17036Z 18186.61287095 .00000786 00000-0 37430-4 0 9990 2 42788 097.4000 246.1916 0012393 020.2112 339.9613 15.21983121057397 SKCUBE 1 42789U 17036AA 18186.61276416 .00000731 00000-0 35082-4 0 9997 2 42789 097.3997 246.1847 0012231 020.2785 339.8935 15.21942215057319 VZLUSAT 1 1 42790U 17036AB 18186.23052280 .00000958 00000-0 44534-4 0 9991 2 42790 097.4003 245.9358 0011904 022.0209 338.1537 15.22320710057266 VENTA 1 1 42791U 17036AC 18186.19921653 .00000675 00000-0 32561-4 0 9999 2 42791 097.3996 245.8186 0011936 022.5155 337.6602 15.21990000057244 Robusta 1B 1 42792U 17036AD 18186.71118968 .00000772 00000-0 36740-4 0 9996 2 42792 97.3996 246.3476 0011820 21.2450 338.9275 15.22086710 57345 D-SAT 1 42794U 17036AF 18186.09782709 .00000341 00000-0 35379-4 0 9998 2 42794 097.5899 240.0782 0126007 222.1410 137.0069 14.90881832056399 BIRD-J 1 42820U 98067MU 18186.45009072 .00013298 00000-0 11982-3 0 9994 2 42820 051.6340 267.9450 0002234 255.5530 104.5219 15.68545570056746 BIRD-G 1 42821U 98067MV 18186.44476835 .00012290 00000-0 11373-3 0 9994 2 42821 051.6343 268.6626 0002250 256.8301 103.2445 15.67972836056713 BIRD-M 1 42822U 98067MW 18186.48704161 .00013184 00000-0 12028-3 0 9996 2 42822 051.6343 268.1985 0002315 260.9541 099.1193 15.68246535056726 BIRD-B 1 42823U 98067MX 18186.67305587 .00012566 00000-0 11437-3 0 9993 2 42823 51.6349 267.2094 0004767 271.7710 88.2740 15.68354401 56735 BIRD-N 1 42824U 98067MY 18186.50855726 .00012781 00000-0 11730-3 0 9996 2 42824 051.6355 268.3783 0004659 271.5405 088.5058 15.68128941056721 TechnoSat 1 42829U 17042E 18186.75442015 .00000104 00000-0 15945-4 0 9994 2 42829 97.5951 88.4077 0015319 133.5257 226.7237 14.90832977 53098 TOMSK-TPU 120 1 42910U 98067MZ 18186.71992965 .00008924 00000-0 95124-4 0 9996 2 42910 51.6345 271.9973 0005742 286.1284 73.9079 15.64820550 50285 TANYUSHA 1 1 42911U 98067NA 18186.69094773 .00010790 00000-0 10905-3 0 9991 2 42911 51.6351 271.0912 0005348 283.2319 76.8080 15.65914059 50278 TANYUSHA 2 1 42912U 98067NB 18186.70028502 .00010395 00000-0 10779-3 0 9991 2 42912 51.6369 271.8821 0004920 295.1787 64.8698 15.65312421 50289 SFERA 2 1 42913U 98067NC 18186.54127096 .00026317 00000-0 18388-3 0 9997 2 42913 051.6321 263.9964 0004766 317.5555 042.5075 15.74083861050373 TNS 0-2 1 42914U 98067ND 18186.57600065 .00009128 00000-0 97916-4 0 9999 2 42914 051.6359 273.3302 0004818 287.9337 072.1132 15.64627534050229 QIKCOM-1 1 42983U 98067NF 18186.76469081 .00001617 00000-0 29360-4 0 9990 2 42983 51.6418 283.6487 0003774 268.0698 91.9862 15.56373211 39114 AO-91 1 43017U 17073E 18186.35554667 .00000189 00000-0 20741-4 0 9994 2 43017 097.7077 116.7317 0258862 212.2248 146.2921 14.78099782033794 EcAMSat 1 43019U 98067NG 18186.70162179 .00002732 00000-0 43485-4 0 9996 2 43019 51.6407 283.2309 0004563 241.4792 118.5741 15.57257086121430 PICSAT 1 43132U 18004X 18186.11580363 .00000701 00000-0 33159-4 0 9990 2 43132 097.5326 248.8428 0011045 043.6405 316.5703 15.22691821026444 AO-92 1 43137U 18004AC 18186.36639568 .00000600 00000-0 28791-4 0 9998 2 43137 097.5323 249.1167 0010601 044.8323 315.3768 15.22752244026488 TianYi 2 1 43155U 18008A 18186.84960852 .00000081 00000-0 87410-5 0 9995 2 43155 97.5234 261.0085 0019666 81.7728 53.5817 15.10589118 25301 Zhou Enlai 1 43156U 18008B 18186.89675740 .00000227 00000-0 17787-4 0 9991 2 43156 97.5273 261.0124 0016760 78.0327 342.1032 15.10051038 25306 TianYi 6 1 43158U 18008D 18186.80997204 .00000612 00000-0 41743-4 0 9993 2 43158 97.5237 260.7710 0015376 75.2509 64.2349 15.09758389 25267 S-Net G 1 43186U 18014G 18186.74411242 .00000163 00000-0 19420-4 0 9995 2 43186 97.7236 94.9812 0012538 90.2666 269.9992 14.96462360 23090 S-Net H 1 43187U 18014H 18186.81089012 .00000171 00000-0 20179-4 0 9992 2 43187 97.7234 95.0438 0012535 90.0217 270.2440 14.96463323 23107 S-Net J 1 43188U 18014J 18186.81080267 .00000165 00000-0 19656-4 0 9997 2 43188 97.7236 95.0487 0012526 90.1421 270.1236 14.96464104 23102 S-Net K 1 43189U 18014K 18186.54345612 .00000141 00000-0 17554-4 0 9995 2 43189 097.7233 094.7790 0012513 090.7780 269.4875 14.96462761021614 FMN 1 1 43192U 18015A 18186.56746838 .00001017 00000-0 46192-4 0 9990 2 43192 097.3584 315.0831 0018551 078.4617 281.8700 15.22878665023316 Shaonian Xing 1 43199U 18015H 18186.60473697 .00000981 00000-0 43541-4 0 9996 2 43199 097.3370 314.8833 0019348 090.7403 269.6060 15.23737832023347 1KUNS-PF 1 43466U 98067NP 18186.73602794 .00006225 00000-0 94550-4 0 9997 2 43466 51.6397 285.7028 0000104 132.8217 227.2783 15.56013474 8596 UBAKUSAT 1 43467U 98067NQ 18186.73738797 .00004582 00000-0 71879-4 0 9994 2 43467 51.6401 285.7130 0002384 195.5046 164.5873 15.55846279 8594 Irazu 1 43468U 98067NR 18186.53913465 .00007162 00000-0 10694-3 0 9994 2 43468 051.6396 286.6379 0000147 056.3620 303.7385 15.56217770108540 /EX
